User: anonymous   Login
Location: Caltech
(34.1382°N, 118.1253°W)
Time: 01:27:19
(UTC-07:00)
Language:

Cosmos 1758 Rocket - Orbit

View from above orbital plane
View from above orbital plane
View from above satellite
View from above satellite

Ground track
Ground track

The orbit data is extracted from the following two-line orbital elements,

1 16792U 86046B   14302.78629796  .00000527  00000-0  62221-4 0  6159
2 16792 082.4859 026.8190 0023962 214.6279 291.1833 14.82676845532392
Epoch (UTC): 29 October 2014 18:52:16
Eccentricity: 0.0023962
inclination: 82.4859°
perigee height: 604 km
apogee height: 637 km
right ascension of ascending node: 26.8190°
argument of perigee: 214.6279°
revolutions per day: 14.82676845
mean anomaly at epoch: 291.1833°
orbit number at epoch: 53239

The dashed part of the orbit path shows where the satellite is in the earth's shadow,  

DLR